SCOUT A DEB, 2889

Orbit data source: Space-Track

SCOUT A DEB, 2889 is space debris in LEO originally from a launch on Fri, 28 Jan 1966 UTC launched from the Air Force Western Test Range (AFWTR). Debris objects in space refer to the collection of defunct objects orbiting the Earth. Examples of debris include non-operational satellites, rocket bodies, and fragments generated from explosions, collisions, or faulty payload assembly.

Loading next visibility...
Identifier
2889, 1966-005E
Orbit
LEO
Last TLE update
17 hours ago
Origin
Manufacturer
Unknown
Mission
Spacecraft
Bus & Motor
Unknown
Mass
Unknown
Launch date (UTC)
1966-01-28 (59 years ago)
Launch vehicle
Unknown
Launch site
Air Force Western Test Range (AFWTR)
Object type
Payload
Rocket body
Debris
Shape & HBR
Unknown
Radar Cross Section
Small (<0.1 m²)

Expand to show TLE details & history

TLE from 17 hours ago
0 SCOUT A DEB
1  2889U 66005E   25128.62946936  .00000162  00000-0  36256-3 0  9991
2  2889  89.5479 175.4776 0166914 182.8033 304.9081 13.17944715783555
Epoch: 2025-05-08T15:06Z
Definitive object data (Epoch: 2025-05-08T15:06:26.152Z)
Latitude
53.96721°
Longitude
-98.44695°
Altitude
1,130.618 km
Speed
7.326 km/s
True Right ascension
23h 39m 26s
True Declination
53° 48' 42"
Sunlit
Object was in daylight at TLE epoch
Visualization TLE readout
Latitude
-65.42803°
Longitude
-96.87531°
Altitude
1,161.213 km
Speed
7.299 km/s
Apparent Right ascension
02h 33m 13s
Apparent Declination
-58° 10' 43"
Sunlit
Object is in daylight
Visualization observer readout
Local Sidereal Time
16:14:38
Azimuth
146.871° SSE
Elevation
-65.6°
Doppler factor
1
Orbital elements
Apogee altitude
1,315.994 km
Perigee altitude
1,063.359 km
Semi-major axis
7,567.814 km
Eccentricity
0.0166914
Inclination
89.5479°
RAAN
175.4776°
Arg. of periapsis
182.8033°
True anomaly
303.32081°
Mean anomaly
304.9081°
Eccentric anomaly
304.11634°
Mean motion
3.29676 °/min
BSTAR
0.00036256
Orbital period
109.2 mins
Loading maneuver chart data...
Loading SW <> Apogee altitude chart data...
Loading historical data...
Loading historical data...
Loading historical data...
Loading historical data...
Loading historical data...
Loading historical data...
Loading historical data...

SCOUT A DEB Visibility forecast

Observer location: undefined°, undefined°

Span
Click to sort rows by Start time (UTC) header in descending order
Start Az.
Max El. time (UTC)
Max El. Az.
Max El.
End time (UTC)
End Az.
12 mins2025-05-09 14:45:31.620Z13.904° NNE2025-05-09 14:51:31.620Z80.393° E36.264°2025-05-09 14:57:31.620Z157.489° SSE
9 mins2025-05-09 16:36:31.620Z329.433° NNW2025-05-09 16:40:31.620Z283.934° WNW24.421°2025-05-09 16:45:31.620Z232.037° WSW
13 mins2025-05-10 03:00:31.620Z159.919° S2025-05-10 03:06:31.620Z92.547° ESE41.834°2025-05-10 03:13:31.620Z5.914° NNE
10 mins2025-05-10 04:51:31.620Z236.267° WSW2025-05-10 04:56:31.620Z283.306° WNW22.469°2025-05-10 05:01:31.620Z328.712° NNW
|